Theta_e
349 347 338 329 330 325 319 317 318 323 323 329 337 340 343 342 342 341 340 337 336 334 331 327 329 336 340 343 343 344 344 345 344 345 345 345 345 345 345 344 343 343 343 343 343 343 343 342 342 339 336 331 327 325 325 325 325 329 333 335 335 334 330 328 332 334 334 334 334 334 334 334 333 334 334 334 333 334 334 335 336 335 333 333 333
348 346 339 329 329 325 319 317 318 323 323 327 333 337 340 341 342 341 342 340 337 333 329 331 338 342 343 343 343 344 344 344 344 344 344 345 345 345 345 344 344 343 343 343 343 343 341 341 340 335 332 331 330 330 330 327 324 324 328 332 332 332 331 329 331 331 331 330 330 330 331 333 333 333 334 333 332 333 334 334 334 334 334 333 333
347 346 342 331 328 325 319 317 318 322 323 327 330 334 337 339 341 340 341 339 337 333 333 339 343 343 343 343 343 344 344 344 344 344 344 344 345 345 345 345 345 344 343 343 343 342 340 340 337 333 333 334 333 333 332 330 325 321 324 330 330 328 330 332 331 331 330 330 331 330 331 333 333 333 333 333 331 331 332 331 332 333 334 333 333
346 347 342 330 325 324 320 318 319 321 323 327 330 333 333 335 336 336 338 337 337 337 339 343 343 343 343 343 343 344 344 344 344 344 344 344 345 345 345 344 344 343 343 343 343 341 339 340 337 335 335 335 335 334 333 331 327 321 322 327 327 324 323 325 327 331 332 333 335 334 334 334 333 333 333 333 333 332 332 332 332 333 333 332 333
346 346 341 333 329 324 320 319 319 321 322 326 330 334 333 332 331 332 334 334 337 340 342 342 342 342 342 343 343 344 344 344 344 344 344 344 344 344 344 344 344 344 343 343 343 341 340 341 340 337 337 336 335 333 332 332 329 323 320 321 321 318 318 324 328 331 333 333 335 335 335 334 333 333 333 333 333 332 332 332 332 332 332 332 332
346 345 342 340 336 325 321 321 319 320 321 327 332 335 335 334 333 334 335 335 337 340 342 341 342 342 343 343 343 344 343 344 344 344 344 344 344 344 344 343 344 343 343 343 342 341 340 340 340 339 339 337 333 332 332 332 330 325 320 318 316 315 323 331 332 332 333 334 336 335 334 335 333 332 333 333 332 332 331 331 331 331 332 332 332
346 346 344 344 339 326 322 322 321 320 320 330 336 335 336 337 337 338 338 339 339 340 342 341 342 343 343 343 343 344 343 344 343 344 344 343 343 344 344 343 343 343 343 343 342 341 340 339 338 336 335 334 332 331 331 333 332 327 322 318 316 321 330 333 332 333 334 336 335 334 335 335 334 333 333 333 333 332 332 333 332 331 331 330 332
345 345 344 344 337 324 323 324 323 322 324 334 339 338 340 340 340 340 340 341 341 341 342 342 343 343 344 343 343 343 343 344 344 344 343 343 343 344 344 343 343 342 342 341 341 341 339 337 333 331 330 330 331 332 332 332 332 328 323 321 325 330 333 333 334 334 335 336 334 333 334 334 333 333 333 334 334 334 335 336 333 332 332 331 332
345 344 344 343 334 324 325 325 325 326 332 338 340 342 342 343 343 342 342 341 342 342 342 342 343 343 343 343 343 343 344 343 344 344 343 343 342 343 343 342 342 341 340 339 339 337 336 334 329 327 328 331 331 332 332 332 332 329 324 325 331 333 333 334 334 335 336 335 334 336 336 334 332 333 334 334 334 335 336 336 335 332 332 331 329
345 345 344 343 335 325 325 325 327 330 336 341 341 343 343 343 344 343 343 342 342 342 342 343 343 343 343 343 343 343 343 343 343 343 342 342 341 342 342 342 341 340 340 338 334 331 331 331 328 326 329 331 331 332 332 332 332 330 326 326 331 333 334 335 335 336 335 335 336 337 336 335 333 332 333 333 334 335 335 334 334 332 330 330 328
345 345 344 343 335 326 325 325 328 333 338 341 342 342 343 343 344 343 343 342 342 342 343 343 343 343 343 343 342 343 342 342 342 342 341 341 340 340 340 341 340 340 339 337 333 330 327 326 326 327 330 331 331 332 331 331 331 330 327 327 331 333 334 335 338 337 334 335 335 334 332 334 335 331 330 332 331 331 332 332 331 331 330 330 330
344 346 344 341 335 328 327 326 331 337 339 341 341 342 343 343 343 343 343 343 343 343 343 343 343 343 343 342 341 341 341 341 341 341 341 340 338 337 337 336 336 336 335 334 332 330 326 323 324 328 331 331 331 331 330 330 330 329 329 329 332 333 334 336 338 336 334 334 334 335 334 336 335 328 329 332 330 330 331 329 330 331 329 329 330
345 346 343 341 339 332 326 328 336 340 339 339 341 341 342 343 343 344 343 343 343 343 343 342 343 342 342 341 340 340 339 339 338 338 337 337 337 336 335 332 331 330 330 330 328 327 324 321 325 329 331 331 331 330 330 330 330 330 328 330 333 333 334 336 337 335 333 334 334 336 336 337 332 324 329 332 331 332 331 329 329 330 329 329 330
346 346 343 342 341 335 328 331 339 341 339 339 340 340 341 343 343 343 342 343 343 342 342 342 342 341 341 340 338 337 335 333 332 330 328 329 331 331 329 327 325 325 326 327 326 324 321 322 326 330 331 332 331 330 330 331 331 330 328 328 331 333 334 336 335 333 334 335 335 334 336 336 328 324 329 331 331 332 331 330 329 330 330 329 329
347 346 344 343 341 338 334 335 339 341 339 339 340 340 340 342 342 342 342 342 342 342 342 342 341 340 339 338 337 334 331 330 328 325 323 323 324 325 325 325 323 322 322 323 324 323 320 321 327 330 331 332 331 331 330 331 331 330 330 329 330 332 335 338 335 331 333 333 333 334 337 335 326 327 331 331 331 331 330 330 329 329 329 328 327
346 345 344 343 342 341 339 338 339 340 339 339 339 339 340 342 342 342 342 342 342 342 341 341 340 340 339 338 336 335 334 333 332 329 326 324 325 326 327 327 325 321 319 320 322 322 320 321 327 330 331 332 332 332 331 331 331 331 330 330 332 334 335 338 336 332 333 333 333 334 337 334 324 326 331 331 330 330 330 331 330 329 329 328 326
346 345 345 344 343 342 342 340 338 339 338 338 338 340 340 341 342 342 342 341 342 341 341 340 340 339 339 338 337 337 336 336 335 333 329 326 325 326 328 328 327 323 318 317 319 320 320 321 326 329 331 332 332 333 332 332 331 331 331 330 332 334 335 337 337 332 331 332 332 334 337 334 325 324 329 331 329 330 330 330 330 329 329 328 325
346 345 345 343 344 343 343 341 339 339 338 337 338 340 341 341 342 342 342 341 342 341 341 340 339 339 338 338 337 336 336 336 335 335 333 329 326 325 328 330 330 328 322 316 315 319 319 320 324 327 330 332 332 333 332 332 332 332 331 331 332 334 335 336 337 331 329 332 332 337 338 334 328 324 327 330 330 330 330 329 330 329 329 329 326
345 345 345 343 343 343 343 342 341 341 339 339 338 340 340 341 341 341 341 341 341 341 340 340 339 339 338 337 336 336 334 334 334 333 333 331 330 329 330 332 333 332 330 321 314 316 318 320 323 326 330 332 332 333 333 332 332 332 332 332 334 336 336 337 337 331 331 333 333 338 335 327 323 322 328 331 330 330 330 329 330 330 329 329 327
346 345 345 344 345 344 344 343 343 342 341 340 338 339 340 341 341 340 341 341 341 340 340 339 339 338 338 337 337 338 337 338 338 335 334 333 333 333 331 332 332 332 333 327 316 314 317 319 322 325 329 331 332 333 332 332 332 332 332 333 335 336 338 338 335 332 333 331 332 337 330 321 319 324 330 330 329 330 330 329 330 329 329 329 327
346 346 346 345 345 345 344 343 344 342 341 340 338 337 337 339 340 339 340 340 340 339 338 338 339 338 336 337 339 340 339 339 339 337 337 335 333 331 329 330 330 331 331 329 321 315 315 319 321 324 329 331 332 333 332 331 332 332 332 334 336 338 339 336 334 333 333 330 333 335 328 323 322 326 331 328 328 330 330 329 329 329 329 328 327
346 347 346 345 346 345 344 343 343 342 341 340 338 336 336 338 339 339 340 339 339 338 339 340 340 339 335 338 339 337 336 337 337 336 338 338 335 331 329 328 329 330 329 329 328 319 313 316 320 323 328 331 332 335 335 331 332 332 331 334 336 339 338 335 334 333 332 332 334 334 328 326 325 326 331 330 329 330 331 329 328 328 329 328 327
345 346 345 345 346 345 343 342 341 340 340 340 337 336 337 337 338 339 340 339 339 339 340 340 340 339 337 338 337 336 335 336 336 334 336 338 335 331 329 327 327 328 328 331 333 327 316 313 318 323 326 328 333 339 339 336 334 332 331 335 338 339 337 335 335 333 332 333 333 334 329 327 327 327 331 332 330 330 330 329 327 328 329 328 327
344 344 344 344 344 344 342 341 340 339 339 338 337 336 336 335 336 337 338 338 338 339 339 339 339 338 338 338 337 337 337 338 337 335 336 336 334 332 331 331 332 330 330 335 336 334 328 318 316 320 325 328 334 339 339 340 339 336 335 337 339 338 337 335 334 334 333 333 334 334 330 327 328 328 330 330 330 331 330 330 328 328 329 329 327
344 343 343 343 342 341 341 340 339 338 337 336 335 336 336 335 337 337 337 337 336 337 338 338 338 338 338 338 340 341 340 340 339 339 339 338 337 337 336 336 337 334 332 337 338 336 336 329 320 320 327 332 335 335 335 338 340 339 338 338 338 337 337 335 334 334 333 334 335 333 331 329 328 328 329 329 330 331 331 330 328 328 329 328 327
343 343 342 342 341 340 340 338 337 337 336 335 335 335 336 337 338 337 337 336 336 336 336 337 338 338 339 341 342 342 341 340 340 341 341 340 339 339 339 338 338 336 332 335 336 335 337 334 328 326 329 334 333 333 334 335 336 337 337 336 336 336 335 334 333 334 334 335 336 334 332 331 329 328 328 329 332 332 331 330 329 329 329 328 327
342 342 342 341 340 339 337 337 337 337 336 336 335 335 335 337 337 337 336 336 337 337 337 338 338 339 341 342 342 341 340 340 340 341 341 340 340 339 339 339 339 338 336 335 335 335 334 334 333 331 330 332 332 333 334 334 334 333 334 334 334 334 334 334 333 334 335 335 336 335 333 332 331 329 328 328 331 332 332 331 330 329 329 328 328
342 341 341 340 338 337 337 336 336 336 337 337 336 335 336 337 337 337 337 337 338 338 339 340 340 341 343 343 342 340 339 339 340 340 340 340 340 340 340 339 339 339 339 338 336 335 335 334 334 333 331 331 331 333 333 334 334 334 334 334 333 334 335 335 334 333 335 334 335 336 334 333 333 331 329 327 328 332 332 331 330 330 330 329 328
341 340 339 338 338 337 337 336 336 336 337 337 336 337 338 338 338 338 338 338 339 341 341 341 341 341 342 342 341 341 341 340 340 339 340 340 341 342 340 339 339 338 339 339 339 337 336 336 334 333 332 332 332 333 333 334 335 335 336 335 334 335 335 335 334 334 334 334 335 336 336 335 334 333 332 329 327 330 332 332 331 330 330 330 329
340 338 337 337 337 337 336 336 337 338 338 338 338 339 340 339 340 340 339 340 341 341 341 341 341 340 341 342 342 342 342 341 341 340 339 340 341 342 340 340 339 339 339 340 340 340 339 338 337 335 334 333 333 333 333 334 334 334 335 335 334 334 335 336 335 334 334 334 335 336 337 336 336 335 333 332 329 328 330 332 332 331 331 330 330
338 337 336 336 336 336 337 337 338 339 339 339 340 341 341 341 342 341 341 341 342 342 342 342 341 341 342 343 343 342 343 342 342 342 341 341 341 341 341 340 341 341 341 341 341 341 341 340 339 338 337 335 334 333 333 333 334 333 333 334 334 334 335 335 335 335 334 334 335 336 337 337 337 336 334 333 331 329 327 330 333 332 331 331 331
337 336 336 336 336 337 338 338 339 339 339 341 342 342 343 343 343 343 342 341 342 342 341 342 341 341 342 343 343 343 343 342 343 342 341 341 341 341 342 341 341 342 341 342 342 342 342 341 340 340 340 338 337 336 334 334 333 333 332 333 333 333 334 334 334 334 335 336 335 336 337 337 337 336 335 334 333 331 328 328 331 333 332 331 331
336 336 336 337 338 339 339 339 339 340 340 342 342 343 344 344 344 343 342 341 341 340 340 341 341 342 342 343 343 343 342 343 343 342 340 341 341 341 342 341 341 342 342 343 342 342 341 340 340 340 340 340 339 338 337 336 335 334 334 334 333 333 334 334 334 334 335 335 336 336 336 336 336 336 336 335 334 333 331 329 328 331 333 332 331
336 336 337 338 339 339 340 341 340 341 341 342 342 342 343 344 343 343 342 342 341 341 341 341 341 341 342 343 342 342 342 342 342 341 340 340 340 340 341 341 341 342 342 342 341 341 340 340 339 339 339 339 339 338 338 337 337 336 336 335 335 336 336 336 336 335 335 335 335 336 336 336 336 335 335 336 336 335 333 331 328 328 331 332 332
336 337 338 339 340 340 342 342 342 342 343 343 342 342 343 343 341 340 342 343 343 342 342 342 342 341 341 342 342 342 341 341 340 340 340 339 339 339 340 341 341 341 342 341 340 340 340 340 339 339 339 339 339 338 338 338 337 337 337 337 337 337 337 337 337 337 337 337 336 335 335 335 336 335 335 335 335 336 335 333 331 328 328 331 332
337 338 339 339 340 341 342 342 342 343 343 342 342 342 342 341 341 341 343 344 343 342 343 342 341 341 341 341 341 341 341 340 340 340 341 340 339 339 339 340 340 341 341 341 340 340 340 340 340 340 340 340 339 339 339 338 338 338 338 338 338 338 338 338 338 338 338 337 336 337 336 336 336 336 335 335 335 335 335 334 333 331 328 328 330
339 339 339 339 339 341 342 342 342 343 343 341 342 342 341 342 342 343 343 343 343 343 343 342 342 341 341 341 341 341 341 341 340 340 341 340 340 340 340 340 340 341 341 340 339 339 340 340 340 340 339 339 339 339 339 339 339 339 338 338 338 338 339 339 338 338 338 337 337 337 338 337 336 336 335 336 336 335 334 334 335 334 331 328 328
338 339 339 339 340 341 342 340 338 340 340 339 341 341 342 343 344 343 343 343 343 343 342 341 342 341 341 340 340 340 340 341 340 340 340 339 338 339 339 340 339 340 339 338 338 339 339 339 339 339 339 339 339 339 339 339 338 337 337 337 337 337 338 338 338 338 338 337 336 337 337 337 336 336 335 335 336 335 334 334 334 334 332 329 328
338 339 338 337 339 340 341 339 337 338 337 337 340 343 343 343 344 343 343 343 342 342 342 341 340 340 339 339 338 339 339 340 340 340 339 338 337 338 338 338 338 339 339 338 338 338 338 338 337 338 338 338 337 337 337 337 336 336 336 335 336 336 337 337 338 338 338 338 338 337 337 337 336 336 336 335 336 335 335 334 334 334 333 331 329
338 337 334 334 337 339 339 339 338 338 336 336 339 342 341 340 342 342 340 341 340 340 340 339 339 338 337 337 337 337 337 337 338 339 338 337 337 337 337 337 337 337 337 337 336 336 336 336 335 335 335 335 335 335 335 335 335 335 335 334 335 335 335 336 337 338 338 338 338 337 337 337 336 336 336 336 335 335 335 335 335 334 334 333 332
336 334 332 333 336 338 337 338 338 338 336 335 337 339 339 339 342 341 340 340 339 339 339 338 338 337 336 336 336 336 336 336 336 337 337 337 337 337 336 336 336 335 335 335 335 335 335 334 334 334 334 334 334 334 334 334 335 334 334 334 334 334 334 335 337 339 339 338 338 337 337 337 337 337 336 336 336 336 335 334 334 334 334 334 333
334 333 334 335 335 336 337 337 337 337 336 334 335 336 337 339 340 340 339 339 338 338 337 337 337 336 336 335 335 335 334 335 335 335 335 335 335 335 335 335 334 334 334 334 334 333 333 334 334 334 333 334 333 333 333 334 334 333 334 334 332 332 332 334 337 337 336 337 337 337 337 337 338 337 336 336 336 337 337 335 334 333 334 333 333
335 334 335 337 336 336 337 336 336 336 335 334 335 336 337 339 340 339 338 338 337 336 335 335 335 334 334 334 334 333 333 333 333 333 333 333 333 333 333 333 333 332 332 332 332 332 332 332 333 333 333 333 333 332 332 333 333 333 334 333 333 332 331 334 336 335 334 335 336 337 337 337 338 337 337 336 335 335 336 336 335 333 333 334 333
336 334 335 337 336 335 336 335 336 336 336 336 338 338 338 339 338 337 337 336 335 335 335 334 333 333 333 332 332 332 331 331 330 330 330 329 329 330 331 330 330 329 329 329 329 329 329 330 330 330 330 331 331 331 331 332 333 333 333 333 333 332 331 333 334 334 333 333 334 335 334 335 335 336 336 335 335 334 334 335 336 335 334 333 333
335 335 336 336 335 335 335 334 335 336 335 337 338 338 338 337 336 336 335 335 334 334 334 333 332 332 331 329 329 329 328 327 327 327 327 327 327 327 328 327 327 326 326 326 326 326 327 327 327 327 327 328 328 328 329 330 331 332 332 333 334 333 332 333 333 333 332 332 332 332 331 332 333 333 334 334 333 333 333 334 335 335 335 334 333
334 335 335 336 335 334 333 333 335 335 335 336 337 336 337 337 336 336 335 335 334 333 333 333 331 330 329 327 326 326 326 325 325 324 324 325 325 325 325 325 325 325 324 324 324 324 324 324 325 324 324 325 326 327 327 328 328 329 330 331 331 332 332 332 332 332 331 331 331 331 331 332 332 331 332 332 332 332 332 333 333 334 335 335 334
333 333 334 335 334 333 332 333 334 334 335 336 336 336 336 336 335 336 335 335 334 333 332 331 330 329 327 326 325 324 323 323 323 322 322 322 323 323 323 323 323 323 322 322 322 322 322 322 323 323 323 323 324 325 325 325 326 326 327 327 327 328 328 330 330 330 331 331 330 331 331 331 331 331 331 331 331 332 332 334 334 333 333 334 334
331 331 332 332 332 333 333 333 334 334 334 335 335 335 335 335 334 334 333 333 332 331 330 329 328 327 326 325 324 323 321 320 320 320 320 319 320 320 320 320 320 320 320 320 320 319 320 321 321 321 321 322 322 322 323 323 323 324 323 323 324 325 325 326 328 328 329 329 328 329 329 330 330 330 331 330 330 331 332 334 335 334 333 333 333
330 330 330 331 331 332 332 332 333 333 333 333 333 333 333 333 333 332 331 330 329 329 328 327 326 325 324 323 322 321 319 318 317 317 317 317 317 317 317 317 317 317 317 317 317 317 318 319 319 319 319 319 320 320 320 320 320 320 320 321 321 322 323 323 324 324 325 326 325 326 326 327 327 328 329 329 330 330 331 333 334 334 334 333 334
330 329 330 330 331 331 331 331 331 331 331 331 331 330 330 331 331 331 330 328 327 327 326 326 325 324 323 322 321 319 318 317 316 315 315 315 315 315 315 315 314 315 315 315 315 315 317 317 317 317 317 317 317 316 317 316 316 316 317 317 318 319 320 321 322 322 323 323 323 323 324 324 324 325 326 327 328 328 329 331 332 334 334 334 334
330 330 330 330 330 329 329 329 328 329 329 329 328 328 327 327 328 328 327 327 326 326 325 325 324 323 321 320 319 317 316 315 315 315 314 314 314 313 313 313 313 313 313 314 314 314 315 315 315 316 316 315 315 314 315 314 313 314 314 315 316 316 317 318 319 319 319 321 321 321 322 322 323 323 323 324 324 325 326 328 329 332 333 334 334
Wind_Speed
18 20 21 20 17 16 14 13 13 13 13 15 16 16 15 14 13 13 13 13 13 12 13 15 15 14 13 12 12 12 12 12 12 12 12 12 13 12 12 13 14 14 14 14 14 14 14 15 14 13 13 12 12 12 13 12 11 11 10 11 11 11 12 12 13 14 13 12 13 13 12 12 12 12 11 10 10 11 11 10 10 11 12 13 13
20 20 20 20 18 17 15 14 14 14 14 15 16 17 16 14 13 13 12 12 13 14 16 16 13 13 12 12 12 12 12 12 12 13 12 13 12 12 12 13 14 14 14 14 14 14 14 15 13 13 13 13 13 13 13 13 11 10 9 9 10 11 12 12 12 12 11 11 12 12 13 13 13 13 12 10 9 10 11 12 13 13 13 13 13
21 19 20 20 19 17 16 15 15 14 14 15 15 16 16 15 14 13 13 12 14 16 16 13 12 13 12 11 12 12 12 12 12 12 13 12 11 12 12 12 13 14 14 14 14 14 14 14 13 12 13 13 13 13 13 13 12 10 9 9 9 10 11 12 12 12 12 12 13 15 15 15 14 13 13 12 10 10 9 9 12 13 12 12 12
21 20 20 21 19 18 16 16 16 15 15 16 15 15 15 15 15 14 14 15 16 16 15 12 12 12 12 11 12 12 12 12 12 12 12 12 11 11 11 12 13 14 14 14 13 13 14 14 12 11 11 12 12 12 12 12 13 12 9 8 9 9 11 12 12 14 13 12 14 16 14 13 13 13 12 12 11 11 10 10 12 12 11 10 10
21 20 20 20 19 18 17 17 17 16 17 17 17 16 15 15 16 16 17 17 16 15 14 12 12 12 12 12 12 12 12 12 11 12 12 11 11 11 11 13 13 13 13 13 12 13 13 13 12 11 10 10 11 11 11 12 12 12 10 9 9 10 13 15 15 16 14 11 11 11 11 11 11 12 11 11 12 11 11 11 11 11 10 11 9
21 20 20 20 18 18 18 18 18 18 18 18 17 17 16 16 16 17 17 17 16 15 14 13 12 12 12 12 12 12 12 11 11 12 11 12 12 11 12 13 13 13 12 12 12 12 12 11 11 10 9 9 10 10 10 11 12 12 10 9 11 14 17 16 15 13 13 11 8 7 8 10 10 11 11 11 12 12 11 11 10 10 9 9 9
21 20 20 19 18 19 18 18 19 19 19 18 17 17 16 15 15 16 16 16 16 15 14 13 12 12 12 12 12 12 12 12 12 12 12 12 12 12 12 12 12 12 12 11 12 12 11 10 9 9 9 9 9 9 9 10 10 11 11 12 15 18 18 15 13 11 9 7 5 7 9 10 10 10 10 11 11 10 10 11 10 8 8 8 8
20 20 19 18 19 20 19 18 19 19 19 18 18 17 16 15 15 16 16 16 15 14 13 12 12 12 12 12 12 12 12 12 12 12 12 12 12 12 11 12 12 11 11 11 11 10 9 9 8 8 8 9 8 8 8 8 9 11 12 15 18 18 16 15 13 12 10 6 6 9 9 9 10 9 9 9 9 8 9 10 10 7 6 6 6
20 20 19 18 20 21 20 18 18 18 18 18 18 17 16 16 15 15 15 15 15 14 13 13 13 13 12 13 13 12 12 12 12 12 12 12 12 12 11 11 10 10 10 10 10 9 8 7 7 8 8 8 7 6 6 7 8 10 11 14 16 16 15 15 14 13 11 8 8 9 9 10 10 9 8 6 6 8 8 8 9 8 5 4 4
20 20 18 17 20 21 20 18 17 18 18 18 18 17 16 16 16 15 15 15 14 14 13 13 13 13 13 13 13 13 12 12 12 12 11 11 11 11 10 10 9 9 9 8 8 7 7 6 6 7 7 7 6 5 5 5 7 8 10 12 14 14 14 14 13 11 8 8 9 8 9 10 9 9 7 5 4 7 7 5 4 5 6 5 6
21 19 18 18 20 21 20 18 18 18 18 17 17 17 15 16 16 15 15 14 14 14 13 13 13 13 13 13 13 13 12 12 12 11 11 10 10 10 9 9 8 8 7 6 6 6 6 5 5 6 7 7 6 5 5 5 6 8 8 11 11 11 10 9 9 7 6 8 8 8 8 8 8 7 6 5 4 4 3 2 2 4 6 8 7
19 19 19 19 19 20 20 19 18 17 17 17 17 16 15 16 16 15 14 14 13 13 14 14 14 13 13 13 13 13 12 12 11 11 9 8 8 8 7 7 6 5 5 4 4 5 5 5 5 6 7 7 7 6 7 6 6 7 8 10 10 8 7 6 5 4 6 7 7 7 7 8 7 4 5 5 5 5 3 3 4 4 4 7 6
19 20 20 19 18 19 20 19 18 17 16 16 16 15 14 16 15 14 14 13 13 13 14 13 13 13 13 12 12 12 11 10 9 9 8 7 6 6 5 5 4 4 4 3 3 3 4 5 5 6 8 8 7 7 8 8 7 7 7 9 10 10 9 8 6 4 6 6 6 6 6 7 4 2 5 6 5 4 4 4 4 3 4 5 5
21 20 20 19 18 18 19 19 18 18 17 16 16 16 15 15 14 14 14 13 13 13 13 13 13 13 13 12 12 11 10 9 9 8 8 7 6 6 5 5 4 3 3 2 2 2 3 5 6 6 8 8 8 7 8 8 7 7 7 8 10 10 8 6 5 4 5 5 5 5 6 6 1 2 4 5 4 3 3 4 3 4 4 4 4
21 21 21 20 19 18 18 18 19 19 18 17 17 16 16 15 14 14 14 13 13 13 12 13 13 13 12 11 11 10 10 9 9 9 8 8 7 6 6 5 5 3 2 2 2 2 3 4 5 6 7 8 8 7 7 7 7 7 7 7 8 6 3 2 2 4 3 3 3 3 7 4 3 2 4 3 3 3 3 3 3 4 4 3 3
20 22 22 21 20 19 17 17 18 20 19 18 17 16 16 15 15 14 13 13 12 12 12 13 12 12 11 10 10 9 8 7 7 8 7 7 6 6 5 5 5 5 4 2 3 2 3 4 5 5 6 7 7 6 6 6 6 6 7 5 5 3 3 4 3 2 2 3 2 3 5 1 5 1 4 2 1 2 2 2 3 3 2 3 3
20 21 22 22 21 20 18 17 18 19 17 16 17 16 15 15 14 13 12 12 11 12 12 12 12 11 10 9 8 7 6 6 6 5 6 6 5 5 4 5 6 6 5 3 3 3 4 5 5 5 5 6 6 5 5 5 5 6 7 6 6 5 6 6 4 2 2 3 2 3 5 2 5 3 2 1 1 2 1 2 3 3 3 4 5
20 20 21 22 20 20 19 18 18 17 15 15 15 15 15 14 13 12 12 12 11 11 11 11 11 10 9 7 6 5 5 4 4 4 4 5 5 5 4 5 5 6 6 4 3 4 5 5 5 5 4 5 4 4 4 4 4 5 6 8 9 8 8 6 3 2 3 2 2 3 2 3 7 6 1 2 1 1 0 1 3 4 3 4 6
18 18 19 19 19 20 20 20 18 17 16 15 13 14 14 13 13 12 12 12 11 12 11 11 10 9 8 6 5 4 5 4 3 3 2 3 5 4 4 5 4 5 5 5 4 3 5 6 6 5 4 4 4 3 4 4 4 3 5 8 8 6 6 5 2 1 3 2 2 3 3 7 8 5 3 3 2 1 2 1 3 4 3 4 6
17 17 16 16 17 18 18 19 17 18 17 15 14 12 13 13 13 12 12 11 11 11 10 9 9 8 7 6 5 6 5 4 4 4 3 2 4 3 3 5 4 4 5 5 5 3 5 6 6 6 4 4 3 3 4 4 4 4 4 6 5 5 6 6 3 0 2 2 2 2 5 7 5 3 4 3 3 4 4 3 3 2 3 4 6
16 16 14 15 15 15 16 17 17 17 17 17 15 12 12 13 12 12 12 11 10 10 8 8 7 7 5 4 5 5 3 2 3 4 4 1 1 3 2 3 4 4 5 6 7 3 4 6 7 6 5 4 3 3 3 4 4 4 4 4 3 3 4 3 2 1 1 2 3 4 6 5 3 3 5 3 2 4 4 3 3 3 4 4 5
17 15 14 15 14 13 14 16 16 17 17 16 15 13 13 13 12 12 11 10 10 8 8 8 7 6 4 3 3 2 2 2 1 1 3 2 2 3 2 2 3 4 5 8 9 6 2 6 7 7 5 4 2 3 4 4 4 5 5 3 1 3 3 3 3 3 3 1 4 5 6 5 2 2 5 4 3 4 5 5 5 4 4 4 4
17 15 16 17 14 13 14 15 16 16 15 14 13 13 13 13 12 11 10 9 9 9 8 8 7 6 4 3 3 2 3 3 3 3 4 3 1 1 1 1 2 3 4 5 8 9 4 3 7 8 6 4 3 5 5 5 5 5 4 1 4 5 4 4 5 5 4 2 4 7 7 4 3 1 5 7 7 5 7 8 7 5 5 6 5
17 17 17 16 14 14 15 14 14 14 13 12 13 13 13 13 12 11 10 9 9 8 8 7 5 5 4 4 3 3 4 3 3 4 5 3 0 2 1 1 1 3 4 3 3 7 6 2 5 8 7 6 7 7 6 6 7 6 5 5 7 6 5 5 6 6 5 3 6 9 8 4 3 2 4 7 8 8 9 9 8 6 7 9 8
17 17 17 16 16 15 14 14 13 12 12 12 12 13 12 12 12 11 10 10 9 8 7 6 5 5 4 4 4 3 3 1 0 1 3 3 2 0 1 2 2 0 2 1 2 3 3 3 4 7 8 8 8 6 6 6 7 7 7 7 7 6 6 8 7 7 7 5 8 9 8 6 5 4 6 7 9 10 10 10 9 6 8 12 11
16 16 16 16 15 14 13 13 12 12 11 12 12 12 12 12 12 11 10 9 8 7 7 6 5 5 4 4 3 2 1 2 1 2 0 2 3 3 2 2 3 3 1 2 3 2 3 4 4 6 7 8 7 6 6 6 7 7 7 7 7 7 8 9 8 8 8 7 10 11 9 8 8 7 8 8 10 11 11 11 10 7 9 13 12
15 15 16 15 14 13 13 13 13 13 12 12 12 12 12 12 12 11 10 9 8 8 7 7 6 6 4 4 2 1 0 1 1 1 2 1 3 1 1 2 3 3 2 2 2 2 3 3 4 5 6 7 7 7 7 7 8 8 8 8 8 8 9 10 10 9 9 9 11 13 12 10 10 10 10 10 10 12 11 11 11 9 11 13 12
15 15 15 14 13 13 13 13 13 13 13 13 13 12 12 12 12 11 10 10 9 8 7 7 6 5 4 3 1 1 0 2 1 2 3 3 3 2 2 2 4 3 1 2 1 2 2 3 4 4 6 7 8 8 7 8 8 8 9 9 9 10 10 10 11 11 11 11 12 15 16 14 13 12 12 12 11 12 12 12 12 11 12 15 13
15 15 15 14 14 14 14 14 14 14 13 13 13 13 13 13 12 11 10 10 9 8 7 7 6 5 4 2 1 1 0 2 2 3 3 3 3 3 2 2 4 3 1 2 2 2 3 3 4 5 6 6 7 8 8 9 9 9 10 10 11 12 11 11 12 12 13 13 13 15 16 14 14 14 15 14 14 14 14 14 14 13 13 15 14
15 15 15 15 14 14 14 14 14 14 14 13 13 13 13 13 12 11 11 9 8 8 7 6 5 4 4 2 1 1 1 3 3 3 3 3 2 3 3 2 4 4 2 2 2 3 3 4 4 5 6 7 7 7 8 9 10 11 11 12 12 12 12 12 13 13 14 14 14 14 15 15 16 17 17 17 17 16 16 15 15 15 14 15 16
16 16 15 15 15 14 14 14 14 14 13 13 13 13 13 13 12 11 10 9 8 8 7 6 5 4 4 3 2 2 1 2 2 3 3 3 2 3 4 3 3 3 3 3 3 3 4 5 5 5 7 9 9 9 9 10 10 11 12 12 12 12 13 13 14 15 15 16 16 14 15 17 18 18 19 19 19 19 18 17 17 16 15 15 16
16 15 15 15 15 15 15 15 15 14 13 13 13 13 12 12 12 11 10 10 9 8 7 6 5 4 4 3 2 2 2 2 2 3 2 2 3 3 3 3 3 3 3 3 3 4 4 5 6 5 6 8 9 9 10 11 12 13 13 13 13 14 15 15 16 16 16 16 17 16 15 16 19 19 19 19 20 21 21 20 19 18 17 17 17
16 15 15 16 16 16 16 15 15 14 14 13 13 12 12 12 12 11 10 11 10 8 8 7 5 5 4 3 3 2 2 3 3 2 1 1 2 2 3 3 3 3 3 4 4 4 5 6 6 6 7 7 9 9 10 11 12 13 14 14 14 15 16 17 17 17 16 17 18 18 16 16 18 18 19 19 20 21 22 22 21 20 19 18 18
15 15 15 16 16 16 15 15 14 14 13 12 12 12 12 11 11 12 11 11 9 8 8 7 6 6 5 4 4 3 3 3 3 3 2 1 2 2 3 3 3 4 4 4 4 4 5 6 7 8 8 8 9 10 10 11 11 13 14 14 15 16 17 18 19 19 19 20 20 19 18 18 17 16 17 20 21 21 22 23 23 22 21 20 20
14 15 15 17 16 15 14 14 14 13 12 12 11 11 11 11 11 13 12 10 9 9 8 7 7 6 5 5 4 4 4 4 3 3 2 2 2 2 3 3 4 4 4 4 4 4 5 6 7 8 9 9 10 10 10 11 12 13 14 14 15 17 18 20 21 21 21 21 22 21 21 21 21 18 16 18 21 22 23 23 23 24 24 23 22
14 14 14 14 13 13 14 15 15 12 11 11 11 11 11 11 11 12 12 11 10 10 9 8 7 6 5 5 5 4 4 4 4 3 3 2 2 2 2 3 4 4 4 5 5 4 5 6 6 7 8 9 10 11 11 11 12 13 14 14 16 17 18 20 20 20 20 21 21 19 19 21 21 20 20 19 19 20 21 22 23 25 26 26 24
13 12 12 13 13 11 11 13 13 11 11 12 12 12 12 12 12 12 11 11 11 10 9 8 7 6 5 5 5 5 5 4 4 4 3 2 2 2 3 3 4 5 5 5 5 5 5 6 7 8 8 10 11 11 12 12 12 13 14 14 16 16 17 18 19 20 20 20 21 18 16 17 18 20 22 22 18 17 19 21 23 26 26 27 26
10 10 11 13 12 8 8 10 8 8 10 11 12 12 12 12 11 12 12 11 10 10 8 8 8 7 6 6 6 6 6 5 5 4 3 2 3 3 4 5 5 5 6 6 6 6 6 6 8 9 8 10 11 12 12 12 13 14 15 15 16 16 17 17 18 18 18 19 20 18 16 16 18 21 22 23 22 20 20 20 21 24 26 27 28
11 9 9 8 6 7 10 10 8 7 8 9 10 12 12 13 12 12 13 11 10 10 9 9 9 9 9 8 8 8 7 7 6 5 5 4 4 4 5 6 6 6 7 7 7 8 8 8 9 9 10 11 11 12 13 13 14 14 15 16 16 16 16 16 16 16 17 17 18 17 16 16 17 19 20 20 21 20 21 22 21 21 22 25 28
11 7 6 6 4 7 10 9 9 9 7 8 9 10 11 12 12 11 12 11 11 11 10 10 10 11 10 10 10 9 9 9 8 7 7 7 6 5 5 6 6 6 7 8 8 9 9 10 11 11 11 12 12 11 12 13 14 15 15 15 15 15 16 15 15 15 15 16 16 16 15 14 14 14 16 18 18 19 20 22 21 20 20 22 26
9 7 6 7 5 6 7 7 8 9 6 8 8 8 10 10 10 10 11 11 11 12 12 11 11 11 11 10 10 10 9 9 10 9 9 8 7 6 6 7 7 7 8 9 9 9 10 11 11 11 12 12 12 11 12 13 13 13 13 14 14 14 14 13 12 12 12 14 15 15 14 13 13 12 13 15 15 16 19 20 21 22 22 22 23
8 10 9 6 6 5 5 6 8 8 5 7 8 7 9 10 9 10 11 12 13 13 13 12 12 11 10 10 10 10 10 10 10 10 10 10 10 8 8 9 9 9 9 10 10 10 11 11 11 12 12 12 13 11 12 12 13 13 13 12 12 12 10 7 9 9 11 14 14 14 14 13 13 13 13 13 14 14 16 19 20 21 22 23 23
10 12 10 6 8 7 5 6 7 7 5 4 5 7 10 11 10 11 13 13 13 13 12 11 11 11 11 11 10 10 10 10 11 11 11 11 11 11 10 11 11 12 11 12 12 12 13 14 14 14 14 14 13 12 12 13 14 15 13 9 8 8 6 2 5 11 13 14 13 12 14 14 14 13 13 14 14 14 14 15 17 19 20 21 22
12 13 11 7 9 9 9 9 6 7 7 5 8 11 13 14 13 13 14 14 13 12 12 11 11 11 11 11 11 10 10 10 10 10 11 10 10 11 12 12 13 13 12 12 13 13 14 14 14 14 14 14 14 14 15 15 15 14 11 8 7 8 5 4 9 14 13 11 11 12 14 15 15 14 14 14 15 16 15 13 14 16 19 21 21
14 14 11 9 10 11 11 9 6 8 9 8 10 12 13 14 14 14 15 14 13 12 11 10 10 10 10 10 11 11 10 10 10 10 10 8 8 11 12 12 12 12 11 11 11 11 12 12 12 13 14 14 14 15 15 15 16 15 11 8 6 5 5 11 14 12 12 13 13 14 15 14 15 16 16 16 16 17 16 14 14 16 18 20 20
12 13 12 9 10 11 11 9 8 8 8 7 7 8 10 11 12 13 13 12 11 10 9 9 9 9 9 9 10 10 10 10 10 10 10 8 8 11 11 10 10 10 9 9 9 10 11 10 11 11 12 13 13 13 14 15 16 15 13 11 9 8 9 13 12 8 13 17 15 14 15 16 16 16 16 17 17 18 17 15 15 16 16 18 20
12 12 13 10 9 12 12 10 8 8 7 7 7 7 9 10 10 11 11 11 10 10 9 9 9 9 8 8 9 9 10 10 10 10 10 9 9 9 9 9 8 9 8 9 9 10 10 10 11 11 11 12 12 12 13 15 14 13 14 15 14 14 13 13 10 8 12 15 16 17 17 16 16 18 18 18 17 17 17 15 15 16 16 17 19
13 13 14 12 9 12 12 10 9 9 9 9 9 9 10 10 10 10 10 10 10 10 9 9 10 9 9 8 7 8 10 10 10 9 9 9 9 9 9 9 9 8 9 9 9 10 10 10 11 11 11 11 11 12 12 14 14 14 15 16 15 15 14 14 13 11 9 10 14 17 18 19 20 19 18 19 18 18 18 18 16 16 17 18 18
15 14 14 13 11 11 12 11 10 10 10 10 11 11 11 11 10 9 9 9 9 9 9 9 9 9 9 8 7 8 9 9 9 9 9 10 10 10 10 10 10 10 10 10 10 10 10 11 11 11 12 11 11 12 12 12 13 14 15 16 15 15 14 13 13 14 11 9 10 12 16 21 22 21 20 19 20 19 19 19 19 18 18 19 17
16 15 15 14 14 13 12 12 11 11 11 11 12 11 10 10 10 9 9 9 8 8 8 8 8 8 8 8 8 8 8 8 9 9 10 10 11 11 11 11 11 10 10 10 11 11 10 11 11 11 11 11 11 11 11 11 12 12 13 14 14 14 14 12 13 15 13 11 10 10 15 18 18 20 23 22 23 23 22 21 20 19 18 19 19
17 16 15 15 14 13 13 13 12 11 11 11 12 12 11 10 10 10 9 8 8 7 8 8 8 7 8 8 8 8 8 8 8 9 10 11 11 12 11 11 11 11 11 10 11 11 10 10 10 10 11 11 11 11 10 11 12 11 12 12 12 13 12 12 13 16 14 12 11 10 14 18 18 20 23 24 26 25 24 24 21 19 18 18 21
Wind_Direction
131 128 138 142 130 127 125 130 138 132 128 121 120 120 120 120 121 121 121 128 131 125 114 109 108 109 107 106 106 106 103 100 98 95 94 91 91 92 95 98 99 101 103 104 101 100 100 98 94 92 91 88 84 79 75 74 80 86 89 89 86 84 82 91 102 100 94 89 88 86 83 79 75 71 67 68 70 70 68 76 76 63 60 58 57
132 130 138 138 129 124 124 131 137 133 130 123 123 123 124 122 122 122 119 122 121 114 109 111 113 112 110 108 107 104 100 99 98 97 95 92 93 95 95 98 100 102 103 103 103 104 103 98 95 94 91 87 83 78 72 68 72 79 92 97 94 91 85 88 98 102 100 94 92 91 89 84 77 74 68 64 71 79 80 81 77 65 60 58 55
130 129 134 136 127 122 124 130 136 134 129 124 121 121 125 123 124 126 122 119 115 113 112 116 116 113 109 106 105 102 99 98 98 96 95 94 94 96 97 102 104 104 102 103 104 105 103 98 96 96 91 85 80 73 67 64 64 70 87 98 98 103 99 97 98 97 93 88 85 80 82 84 77 73 66 64 68 70 70 68 66 63 62 63 59
129 129 132 133 125 123 124 129 135 134 130 126 121 119 123 123 125 126 125 123 119 117 118 121 115 111 107 107 106 101 99 97 97 95 94 94 94 95 98 101 100 102 102 102 103 105 102 97 96 96 90 82 74 68 62 61 61 65 80 97 103 111 107 102 103 99 97 95 88 79 81 84 75 73 69 65 64 63 64 60 60 61 58 53 57
131 131 131 129 126 125 123 128 134 134 132 125 121 117 117 117 118 120 122 124 122 120 122 123 116 113 111 109 107 103 101 99 96 94 94 94 94 95 97 99 99 100 100 102 102 104 102 98 97 93 86 77 69 63 60 62 61 63 74 95 103 107 101 99 104 99 94 95 93 87 86 86 78 73 71 69 65 64 65 63 59 56 50 40 41
132 131 129 128 128 127 123 127 131 133 130 123 120 118 117 116 116 117 120 122 123 123 124 123 118 117 113 109 106 105 102 99 97 94 93 94 94 93 97 100 100 98 96 99 99 101 100 97 95 88 84 76 66 60 58 61 62 64 72 92 102 105 103 101 102 98 95 91 86 93 92 88 83 76 71 68 65 66 60 56 57 55 54 45 37
131 131 128 126 129 129 125 126 130 133 131 124 120 118 119 118 119 119 120 123 125 125 124 123 121 117 113 109 107 106 102 98 96 93 92 93 94 93 99 101 100 98 94 94 95 95 94 92 90 86 83 74 63 57 59 61 65 68 74 92 103 106 103 96 93 92 92 88 91 102 97 89 87 84 75 70 69 68 58 51 54 62 65 60 48
134 134 127 125 131 130 126 127 129 135 134 126 122 122 123 121 121 121 122 125 125 125 124 123 121 116 111 108 108 105 101 99 95 94 92 94 96 97 100 103 102 99 97 95 94 92 91 93 90 84 75 66 58 54 59 62 69 74 84 99 104 107 102 94 92 85 73 72 106 98 91 94 92 90 84 82 80 73 64 47 41 53 78 86 74
138 132 126 125 130 130 127 128 129 134 133 128 126 126 125 125 124 124 125 125 125 125 123 123 119 114 111 109 109 105 101 98 96 94 93 94 97 98 99 101 103 100 101 99 98 95 95 97 88 78 69 60 53 54 61 65 75 80 93 107 107 105 98 92 89 81 77 87 101 85 82 98 95 93 93 89 88 89 84 66 48 47 67 95 75
131 124 123 125 131 130 127 128 131 132 130 128 128 127 128 128 126 125 126 126 126 125 124 122 118 114 112 111 109 104 100 98 97 95 94 95 96 99 101 102 104 104 105 103 100 97 95 98 88 76 64 53 52 64 72 74 82 83 98 114 112 108 100 95 82 72 86 98 96 90 87 93 94 95 99 89 99 112 108 113 86 44 48 59 52
125 121 122 128 132 129 127 128 130 131 129 129 129 129 130 129 128 126 126 126 126 125 124 121 118 115 112 111 109 104 100 98 96 95 94 95 97 100 104 107 108 109 109 106 100 93 91 97 94 79 60 50 58 76 83 88 91 84 97 120 122 115 108 97 75 66 91 96 96 105 96 89 95 100 104 86 84 107 104 117 69 39 53 58 56
128 124 125 130 131 128 127 128 130 131 129 132 134 131 130 130 130 128 128 128 126 125 123 121 119 116 113 110 108 105 101 99 97 96 95 93 96 99 102 103 103 104 107 108 100 88 85 96 100 80 59 54 72 83 85 88 92 88 97 121 123 111 106 85 74 92 101 97 96 105 96 92 100 97 99 82 71 80 59 59 56 43 53 55 53
130 124 126 129 129 129 128 128 131 131 129 132 134 131 130 132 131 131 132 131 128 125 124 122 118 115 112 109 106 101 98 97 97 95 96 96 95 94 91 84 82 86 95 101 95 87 87 100 105 81 61 64 81 87 85 83 85 88 99 123 122 109 100 72 72 111 103 101 102 99 89 96 107 66 95 90 76 74 47 54 55 36 43 53 50
128 127 130 129 129 130 129 129 131 131 129 128 130 131 133 135 135 136 136 134 131 126 125 121 116 113 110 106 102 98 95 93 92 92 93 93 91 87 76 67 63 62 77 94 99 98 101 111 109 84 65 71 85 89 84 78 79 81 93 124 129 117 99 57 58 102 104 106 102 99 101 112 122 27 93 104 81 63 52 60 49 43 46 45 46
130 133 132 131 131 130 129 129 130 131 131 133 134 135 137 138 138 139 136 135 132 127 124 120 116 113 109 106 101 97 95 94 93 92 91 92 91 87 76 68 60 55 72 107 136 130 118 123 115 91 70 72 82 90 84 75 75 72 76 115 137 134 109 22 35 94 103 105 97 96 110 129 287 13 97 110 98 64 49 47 30 39 44 34 36
136 136 134 134 133 131 129 127 132 134 135 139 138 138 138 139 140 138 134 134 133 128 124 121 117 112 111 107 102 99 97 95 93 93 97 100 100 96 85 76 68 65 76 107 149 156 139 136 124 99 76 70 78 88 88 79 72 70 68 90 135 140 95 58 33 94 109 101 107 92 117 184 308 30 115 117 121 74 43 21 19 29 26 9 13
140 137 136 137 136 134 131 129 132 131 134 138 138 138 137 141 141 136 133 133 132 128 125 122 119 115 113 107 105 103 102 95 88 93 102 108 114 111 93 77 70 65 71 98 142 159 154 149 136 114 84 69 71 87 97 93 77 73 66 75 116 112 93 74 48 78 82 106 114 80 125 177 327 346 121 168 169 105 63 3 345 347 340 344 3
141 139 139 140 140 137 133 133 130 126 129 132 135 138 137 142 142 138 135 135 135 131 127 123 120 119 115 108 104 95 94 86 78 82 101 112 110 110 101 81 68 63 63 76 122 157 158 159 149 128 100 74 66 85 105 111 96 80 71 87 105 100 91 76 68 93 88 128 120 95 158 269 307 311 116 157 141 129 22 2 312 318 330 340 354
141 140 140 140 140 138 136 137 134 132 131 128 131 137 138 140 143 144 139 138 139 132 128 126 125 122 115 106 102 97 89 77 82 78 90 118 101 100 103 91 76 67 58 62 97 150 161 166 161 142 120 88 73 89 114 125 118 106 90 93 93 80 64 32 3 120 114 136 100 131 261 301 292 280 144 157 150 194 270 281 283 308 329 332 333
139 137 136 136 136 136 139 140 139 139 135 129 129 136 143 142 145 146 143 144 140 133 133 133 131 123 112 104 103 107 98 81 96 88 70 93 112 126 115 100 89 74 66 57 71 129 167 172 169 156 139 109 96 109 129 134 135 136 112 98 83 47 21 355 329 352 119 117 114 170 303 313 271 217 156 188 189 214 261 264 264 290 300 316 324
136 134 132 131 134 135 139 139 139 138 133 130 126 132 144 145 148 148 147 145 137 136 139 139 139 126 115 112 105 108 118 108 106 97 89 80 171 166 137 105 92 71 63 52 51 78 169 180 175 168 153 137 132 146 158 151 155 150 119 108 88 24 343 309 272 281 240 123 146 209 307 322 261 181 175 232 218 217 261 257 240 259 277 295 307
134 133 130 130 133 136 139 137 137 136 131 128 124 129 138 142 148 147 146 146 144 147 149 149 149 137 125 121 119 132 162 152 144 132 153 198 216 188 179 129 89 66 56 48 39 40 128 186 181 176 169 166 161 171 188 177 175 163 136 122 30 302 277 266 273 272 242 168 166 218 291 320 299 165 175 247 257 212 243 250 252 258 257 269 284
137 133 131 133 135 138 139 136 134 132 129 126 127 135 140 145 151 147 145 152 156 159 158 155 153 146 138 130 136 158 147 143 168 187 199 202 213 219 204 117 64 52 51 41 32 30 37 176 183 182 178 187 202 194 201 204 204 187 162 192 287 271 251 250 268 264 245 200 194 236 275 298 294 238 170 235 254 222 234 251 259 256 244 255 271
139 134 134 135 137 137 134 133 132 130 130 132 136 141 146 151 155 155 155 158 161 163 161 154 151 148 145 145 149 150 133 124 148 162 179 199 348 27 36 83 47 48 46 16 21 19 18 90 173 186 186 210 226 217 212 208 208 214 223 249 259 255 249 250 255 257 256 223 213 240 263 262 268 268 203 224 239 230 233 246 250 243 242 257 270
138 137 137 136 136 135 131 132 134 134 137 141 143 146 152 153 154 157 157 160 164 165 164 154 153 153 153 155 148 139 140 152 142 124 150 179 221 131 337 293 270 38 51 299 228 327 338 135 168 192 205 232 238 230 228 220 213 224 238 246 252 255 257 256 255 255 259 241 226 242 261 257 252 253 238 222 222 230 233 241 248 237 239 256 266
140 138 136 134 134 135 134 136 139 143 146 147 146 149 154 154 152 154 154 157 161 163 162 156 152 158 159 141 135 137 173 201 157 327 289 199 241 196 192 254 251 248 251 228 200 255 246 185 196 207 223 244 247 242 240 241 238 238 240 243 252 256 259 262 259 255 258 250 242 251 261 259 257 250 246 233 221 229 232 239 245 234 242 256 263
143 139 134 134 134 138 141 142 146 149 149 148 148 150 153 153 151 152 151 152 155 156 155 152 151 156 149 123 131 134 69 281 101 307 286 310 299 239 190 231 235 238 251 251 205 224 239 226 233 229 238 245 244 244 242 246 250 258 260 256 259 260 265 269 266 261 257 255 251 254 258 258 259 253 248 244 230 228 233 241 245 239 249 256 261
142 140 137 138 140 144 147 149 151 150 150 151 152 151 149 150 151 150 149 151 152 152 149 149 150 144 139 124 109 82 84 285 353 318 303 330 323 291 261 252 249 228 214 277 272 240 250 260 262 252 248 244 245 245 247 253 252 260 269 271 271 269 268 270 271 270 264 261 256 256 260 260 258 256 252 249 240 228 228 240 245 242 252 258 260
142 144 142 144 146 148 151 152 152 151 152 154 154 151 149 150 151 149 150 153 149 147 146 144 144 136 133 128 84 87 304 318 356 340 315 317 310 290 277 273 276 271 240 311 320 296 277 270 272 269 258 250 249 244 248 258 257 257 260 263 267 266 267 269 270 269 267 264 259 260 262 259 258 261 258 252 247 234 225 231 238 236 243 255 260
147 149 146 146 149 150 151 152 152 152 154 156 155 152 151 151 148 147 149 151 143 140 142 139 143 136 128 127 98 94 336 346 350 320 304 302 305 301 307 319 305 316 353 345 336 312 301 291 282 283 285 280 275 265 256 258 260 258 256 258 260 262 264 265 266 266 267 267 264 261 258 258 262 266 263 256 251 243 233 227 230 235 235 242 252
150 152 149 147 150 152 151 153 153 154 156 156 156 154 151 149 146 145 145 145 142 140 141 139 139 128 120 123 90 75 5 348 331 312 312 318 321 316 320 326 326 349 357 348 339 317 305 301 295 299 302 300 300 295 285 278 274 271 267 265 265 265 265 265 268 268 267 268 269 266 262 261 262 263 263 260 255 250 244 233 227 232 237 238 242
152 154 148 147 153 153 151 154 156 158 160 158 157 155 150 148 147 146 146 145 144 142 138 135 131 119 113 108 85 67 32 10 348 329 322 325 331 326 330 334 338 355 349 341 335 319 307 300 298 296 290 290 293 291 291 289 287 285 281 279 278 274 271 269 268 267 265 266 267 268 267 267 265 261 260 259 258 254 250 243 232 228 235 240 237
154 151 142 148 156 154 154 158 161 163 163 161 159 154 151 151 149 148 148 144 142 141 135 130 124 117 110 99 88 74 49 31 18 12 359 344 351 344 345 352 348 349 339 333 325 316 311 303 299 292 283 284 284 283 286 284 283 284 282 283 283 279 278 277 277 277 276 273 271 271 269 270 267 262 260 259 259 258 253 248 240 231 230 237 239
153 146 145 155 158 154 156 159 164 167 165 164 160 155 154 154 152 148 146 142 140 138 129 125 121 115 107 97 89 75 53 38 34 36 41 25 28 14 3 3 352 345 335 331 324 315 312 307 307 304 299 297 292 289 289 286 287 289 287 289 287 286 286 284 284 284 283 280 278 277 276 273 270 269 269 264 261 260 256 251 248 241 232 232 236
150 152 157 158 152 153 157 159 165 168 166 165 162 158 155 154 150 144 141 139 136 131 124 122 119 114 109 98 90 78 61 51 44 42 52 35 23 19 6 360 349 342 335 333 332 322 316 312 311 311 308 304 300 299 296 292 294 293 291 291 289 288 286 283 283 281 281 280 276 275 275 274 275 276 274 269 269 267 261 256 252 248 241 234 232
152 154 155 150 150 159 162 163 164 165 167 167 163 160 156 150 142 136 136 134 130 125 120 120 116 113 109 97 90 82 69 62 56 49 49 40 25 16 6 355 339 335 335 333 332 325 320 318 315 313 310 306 303 301 298 294 293 291 290 289 287 286 283 281 281 281 281 281 281 280 278 276 278 278 272 269 272 270 267 265 259 253 246 240 234
144 140 145 151 159 166 163 162 164 164 166 168 165 160 151 141 135 132 130 126 122 117 115 116 111 106 101 96 94 87 75 68 65 59 53 47 38 22 14 359 336 330 330 327 327 325 326 324 316 313 309 305 302 300 298 296 294 291 289 285 284 284 283 282 283 285 285 284 284 284 281 278 277 276 274 271 270 269 268 267 263 257 250 245 239
126 138 156 161 156 153 159 163 165 165 170 176 167 154 144 134 130 128 122 118 115 112 110 108 105 103 98 94 89 80 72 63 56 51 36 34 42 29 18 3 347 343 339 335 332 330 337 329 315 311 308 302 301 302 300 300 298 294 291 288 286 283 282 283 284 286 286 286 287 284 283 281 278 277 275 274 271 267 265 266 265 259 253 250 244
128 145 153 157 147 149 165 163 158 167 187 195 167 146 141 131 126 124 117 114 110 106 105 102 100 95 86 81 75 70 65 57 52 44 24 28 42 32 20 8 360 357 351 350 346 341 342 335 322 316 313 306 302 301 301 302 301 297 294 291 288 285 283 282 282 284 286 288 288 286 283 281 280 280 280 278 273 268 266 267 266 257 250 250 248
128 124 128 155 171 166 168 161 155 165 188 210 178 149 140 129 123 122 114 110 107 102 98 95 91 82 75 72 68 63 58 52 48 45 34 32 35 28 23 19 11 3 356 353 347 344 342 334 328 324 319 312 307 305 307 309 304 298 296 293 290 287 283 280 277 280 286 289 289 287 284 281 280 280 282 284 280 276 272 266 263 257 247 246 250
104 112 143 172 196 183 173 164 156 157 180 224 205 155 136 129 122 120 117 111 104 96 90 85 81 76 70 66 61 55 50 44 38 35 32 28 22 18 17 12 7 359 355 352 345 343 338 333 331 326 321 316 314 315 319 317 309 306 306 303 301 293 285 277 270 273 283 288 290 289 289 287 286 284 283 285 281 276 275 272 266 259 252 246 247
117 138 152 171 190 184 174 160 145 140 172 227 212 154 128 124 119 116 112 104 100 98 93 86 81 76 67 61 56 49 44 39 31 26 24 22 17 14 13 11 9 1 355 352 348 344 341 343 345 337 328 321 316 319 327 324 317 319 318 310 308 304 299 277 259 271 285 287 287 286 288 289 288 290 289 287 284 278 277 278 272 262 258 252 246
140 151 153 165 175 172 153 137 126 128 157 202 177 135 115 110 111 112 107 99 99 102 99 92 86 81 71 64 58 49 44 38 31 25 20 17 17 17 15 17 17 8 359 354 352 351 351 355 355 347 337 328 323 326 334 331 325 323 317 310 314 313 309 272 264 287 290 285 283 284 288 290 288 288 287 286 287 285 280 279 277 270 264 259 251
137 145 152 160 160 155 135 123 122 132 146 148 126 119 112 107 103 103 105 103 103 103 101 96 91 84 74 64 56 51 49 42 31 25 17 8 14 19 16 16 16 12 6 358 355 353 351 353 355 351 341 334 329 329 331 334 337 334 325 316 313 307 308 346 327 308 300 294 292 292 290 289 290 289 285 283 284 284 280 272 268 269 268 267 260
128 131 142 140 133 130 120 120 132 136 139 136 121 116 112 109 105 105 108 109 109 109 108 103 95 86 77 65 56 51 48 42 31 25 19 6 13 21 18 14 10 11 7 357 353 349 345 345 350 347 339 334 328 323 323 332 339 338 340 336 320 313 323 334 329 315 311 311 302 301 299 295 296 293 287 285 287 287 283 270 259 259 260 262 260
111 115 125 121 117 116 116 124 127 125 130 130 123 119 113 111 116 121 121 119 115 110 105 101 93 84 79 71 59 49 42 40 36 31 26 19 21 21 17 10 5 7 2 354 352 348 343 344 345 342 337 334 330 324 324 331 334 335 344 346 331 323 321 323 323 315 315 312 306 308 307 304 303 301 297 293 295 297 292 281 269 264 253 251 259
99 103 112 111 112 116 124 130 122 116 113 107 107 109 105 100 103 112 116 118 115 107 97 92 89 84 80 74 63 50 42 40 38 33 28 24 21 19 16 11 6 5 359 357 357 352 349 347 346 344 341 340 338 334 332 334 334 336 342 340 331 326 321 319 318 315 313 310 312 314 310 310 312 309 306 302 302 304 301 291 281 279 269 261 262
108 111 113 114 115 116 119 119 110 101 91 85 81 81 83 80 80 87 91 94 101 103 97 90 89 88 80 71 65 55 47 42 38 33 29 27 27 25 23 21 16 12 8 9 6 1 360 358 356 356 352 349 347 341 338 339 338 337 339 337 332 329 325 321 318 316 313 308 313 315 314 317 317 311 308 308 309 307 303 294 285 282 279 276 266
117 116 114 116 120 120 117 113 105 91 81 76 70 69 72 73 79 89 92 90 96 102 103 98 92 87 77 70 68 61 53 46 42 38 35 35 37 37 34 31 27 22 19 17 13 10 9 8 6 5 2 359 358 355 350 347 343 339 339 336 332 331 330 329 327 324 319 311 311 314 318 320 318 314 313 313 311 308 305 297 288 281 278 281 273
119 120 122 126 124 118 113 105 96 85 80 76 73 73 73 74 80 91 99 103 105 106 107 105 97 89 81 76 71 65 58 50 46 42 40 41 41 41 38 34 30 26 22 18 13 11 11 12 10 9 10 8 6 6 4 357 351 347 345 341 338 340 338 335 335 332 326 317 312 311 315 317 315 313 315 316 316 313 310 302 292 282 276 277 273
124 124 125 125 117 112 108 100 90 84 82 81 79 77 77 80 82 83 90 101 108 109 106 105 102 96 88 82 78 70 62 57 51 45 41 40 40 40 38 35 31 27 22 18 14 11 11 13 14 12 14 16 12 10 9 5 360 356 354 350 346 345 341 337 338 336 330 322 317 312 313 314 310 309 313 316 315 313 308 304 297 285 279 276 274